weather.gov     
National Weather Service

Regional Weather Roundup
NWS Homepage
This page is being discontinued on March 12, 2014.
The same data is available at this site. Please update your bookmarks.
Thank you, and we apologize for the inconvenience.
Please send an email to SR-SRH.Webmaster@noaa.gov with any concerns.


Current Version
Previous Version:    01  02  03  04  05  06  07  08  09  10  11  12  13  14  15  16  17  18  19  20  21  22  23  24  25  26  27  28  
[Printable]
971
ASUS44 KHUN 021010
RWRHUN

WEATHER ROUNDUP FOR THE TENNESSEE VALLEY
NATIONAL WEATHER SERVICE HUNTSVILLE AL
500 AM CDT THU OCT 02 2014

ALZ001>004-021100-
NORTHWEST ALABAMA

CITY           SKY/WX    TMP DP  RH WIND       PRES   REMARKS
SHOALS AIRPORT CLEAR     65  59  81 S3        30.00R
$$

ALZ005>007-016-021100-
NORTH CENTRAL ALABAMA

CITY           SKY/WX    TMP DP  RH WIND       PRES   REMARKS
DECATUR AP     CLEAR     62  58  86 CALM      30.01S
HUNTSVILLE AP  CLEAR     66  60  81 E5        30.01R
HUN NWS/UAH      N/A     67  59  74 SE3         N/A
MERIDIANVILLE  CLEAR     59  55  88 CALM      30.02R
VINEMONT AP    FAIR      62  59  88 CALM      30.05R
$$

ALZ008>010-021100-
NORTHEAST ALABAMA

CITY           SKY/WX    TMP DP  RH WIND       PRES   REMARKS
ALBERTVILLE    CLEAR     64  64 100 SE5       30.03S
FORT PAYNE     CLEAR     55  54  94 CALM      30.05S FOG
SCOTTSBORO AP    N/A     59  59 100 CALM      30.05S
SCOTTSBORO HCN   N/A     57 N/A N/A MISG        N/A
VALLEY HEAD      N/A     59 N/A N/A MISG        N/A
$$

TNZ076-096-097-021100-
SOUTHEASTERN MIDDLE TENNESSEE

CITY           SKY/WX    TMP DP  RH WIND       PRES   REMARKS
FAYETTEVILLE   CLEAR     64  57  77 S8        30.02S
TULLAHOMA      CLEAR     59  55  88 CALM      30.04R
WINCHESTER     CLEAR     63  59  88 SE6       30.04R
$$

...SURROUNDING SITES...

CITY           SKY/WX    TMP DP  RH WIND       PRES   REMARKS
ATLANTA        CLEAR     65  62  90 CALM      30.06R
ANNISTON       CLEAR     62  60  93 CALM      30.04S
BIRMINGHAM     CLEAR     67  62  84 SW3       30.04R
CHATTANOOGA    PTCLDY    61  58  90 CALM      30.06R
CORINTH          N/A     66  61  82 S5        29.96R
DALTON         CLEAR     55  55 100 CALM      30.05S
GADSDEN        CLEAR     57  54  88 CALM      30.04R
GOLDEN TRNGL   CLOUDY    68  61  77 SE5       29.97R
HALEYVILLE     FAIR      64  61  90 CALM      30.04R
JACKSON TN     CLEAR     70  61  73 S7        29.94R
LEWISBURG      FAIR      60  57  89 S3        30.00R
MEMPHIS        PTCLDY    73  66  78 S7        29.91S
MURFREESBORO   FAIR      61  57  86 CALM      30.00R
NASHVILLE      CLEAR     63  58  83 S5        29.99R
OXFORD MS      FAIR      66  63  88 SE7       29.96S
ROME           CLEAR     59  57  93 N3        30.05R
SAVANNAH       CLEAR     70  63  78 S3        29.97R
TUPELO         CLEAR     68  62  81 S5        29.96S
TUSCALOOSA     CLEAR     64  62  93 CALM      30.00R
$$

...GULF COAST WEATHER...

CITY           SKY/WX    TMP DP  RH WIND       PRES   REMARKS
GULFPORT       MOCLDY    79  75  87 SE8       29.95S
PASCAGOULA     CLOUDY    74  73  97 CALM      29.96S
MOBILE         CLEAR     70  70 100 CALM      29.98S
GULF SHORES    SUNNY     74  72  93 CALM      29.97S
PENSACOLA      CLEAR     77  73  87 S8        29.97S
DESTIN         MOCLDY    77  73  87 CALM      29.99R
PANAMA CITY    CLEAR     71  71 100 CALM      30.00R
APPALACHICOLA  CLEAR     73  69  87 NE5       29.99R
$$





U.S. Dept. of Commerce
NOAA National Weather Service
1325 East West Highway
Silver Spring, MD 20910
E-mail: w-nws.webmaster@noaa.gov
Page last modified: May 16, 2007
NATIONAL WEATHER SERVICE: for Safety, for Work, for Fun - FOR LIFE